Вернуться в каталог

COSMOS 970 DEB

АктивенLEO
NORAD 10575·DEBRIS·🇷🇺 Russia

Запущен Dec 21, 1977 с Baikonur Cosmodrome

Loading…

Ближайшие Пролёты (ближайшие 24 часа)

TLE

СвежийSource: Space-Track

Эпоха: Sep 14, 2026, 12:52 UTC

1 10575U 77121S   26257.53640729  .00000036  00000-0  14247-3 0  9994
2 10575  65.8771  78.1890 0108317  78.1569 316.1343 13.61394389417485

Отслеживайте COSMOS 970 DEB в реальном времени с AllMySat

Download on the App Store